Regional Weather Roundup
Issued by NWS

Home | Current Version | Previous Version | Graphics & Text | Print | Product List | Glossary On
Versions: 1 2 3 4 5 6 7 8 9 10 11 12 13 14 15 16 17 18 19 20 21 22 23 24 25 26 27 28 29 30 31 32 33 34 35 36 37 38 39 40 41 42 43 44 45 46 47 48 49 50
000
ASUS43 KFSD 021602
RWRSD

WEATHER ROUNDUP FOR SOUTH DAKOTA
NATIONAL WEATHER SERVICE SIOUX FALLS SD
1100 AM CDT MON MAY 02 2016

NOTE: "FAIR" INDICATES FEW OR NO CLOUDS BELOW 12,000 FEET WITH NO
SIGNIFICANT WEATHER AND/OR OBSTRUCTIONS TO VISIBILITY.


SDZ001>005-009-010-012>017-021700-
NORTHWEST AND NORTH CENTRAL SOUTH DAKOTA

CITY           SKY/WX    TMP DP  RH WIND       PRES   REMARKS
BUFFALO          N/A     62  30  29 NW20      30.02F
FAITH            N/A     59  34  39 W15       30.07F
MOBRIDGE       LGT RAIN  50  40  68 NW8       30.04F
$$

SDZ012>016-024>037-041>051-057-063-072>074-021700-
SOUTHWEST AND SOUTH CENTRAL SOUTH DAKOTA

CITY           SKY/WX    TMP DP  RH WIND       PRES   REMARKS
RAPID CTY ARPT PTSUNNY   58  33  39 N7        30.12F
PIERRE         CLOUDY    50  39  66 W12       30.06F
CUSTER         SUNNY     49  26  41 MISG      30.15F
ELLSWORTH AFB  CLOUDY    57  32  38 N12       30.12F
PHILIP         PTSUNNY   57  41  55 W13       30.10F
PINE RIDGE     SUNNY     51  32  48 W13       30.14F
WINNER         FAIR      57  38  48 W8        30.12F
$$

SDZ004>011-016>023-039-040-021700-
NORTHEAST SOUTH DAKOTA

CITY           SKY/WX    TMP DP  RH WIND       PRES   REMARKS
ABERDEEN       MOSUNNY   59  39  47 S8        30.05F
WATERTOWN      SUNNY     58  34  40 W9        30.07F
BROOKINGS      MOSUNNY   57  35  43 W5        30.10F
SISSETON         N/A     64  30  27 W12       30.04F
$$

SDZ017-020-022-023-036>040-048>070-021700-
SOUTHEAST SOUTH DAKOTA

CITY           SKY/WX    TMP DP  RH WIND       PRES   REMARKS
SIOUX FALLS    MOSUNNY   61  40  45 VRB7      30.11F
HURON          MOSUNNY   56  40  55 S3        30.09F
MITCHELL       CLOUDY    56  42  59 NW6       30.12F
YANKTON        SUNNY     55  41  58 N7        30.13S
$$

ABBREVIATIONS USED IN REMARKS
   TC - TEMPERATURE IN CELSIUS
  WCI - WIND CHILL INDEX
   HX - HEAT INDEX
  VSB - VISIBILITY




USA.gov is the U.S. government's official web portal to all federal, state and local government web resources and services.